Theta_e
301 303 305 305 306 306 305 303 305 306 305 305 306 306 305 307 311 313 313 309 312 318 327 336 338 343 347 347 349 351 363 364 360 361 363 358 358 357 353 348 350 351 349 349 351
302 304 306 307 308 307 307 305 305 305 305 306 307 306 307 311 313 315 310 309 312 320 334 335 335 336 348 351 351 357 362 358 354 356 360 360 358 357 354 351 352 352 349 351 350
304 306 307 308 308 308 307 306 305 305 305 306 307 308 310 310 319 320 320 309 321 324 327 325 330 331 339 341 353 357 360 354 354 356 356 359 358 356 357 360 352 354 353 349 348
306 307 308 308 308 308 307 306 305 305 306 307 309 310 310 315 324 326 316 311 328 329 324 326 328 335 341 346 344 354 352 351 353 356 357 359 356 358 356 358 348 349 349 349 348
307 307 308 308 307 307 307 306 306 305 306 307 309 311 313 316 315 323 311 319 330 324 323 324 332 334 341 341 343 351 349 345 343 354 356 356 357 359 359 352 348 348 349 349 348
307 308 308 308 307 307 306 306 306 305 306 307 310 315 314 309 316 319 312 321 325 325 317 326 330 333 336 337 340 341 342 340 337 349 354 355 357 356 359 351 351 350 348 347 348
308 308 307 307 307 306 306 306 306 305 306 307 313 316 316 309 324 317 314 318 320 318 314 326 332 335 336 340 335 335 335 333 356 355 355 354 359 357 356 356 357 353 349 347 346
308 308 307 306 306 306 306 306 306 306 307 309 316 320 320 321 324 318 319 320 319 318 318 319 330 329 332 333 326 326 325 327 356 356 355 355 362 357 355 355 357 353 349 347 346
306 306 306 305 306 307 307 307 311 309 309 314 319 320 325 322 325 322 319 322 319 317 318 318 327 329 322 326 326 324 330 327 351 355 357 356 360 356 356 353 356 354 348 345 346
305 305 305 307 307 308 306 312 313 312 317 319 321 320 316 320 317 323 323 321 320 315 316 318 318 319 321 324 334 331 328 326 327 355 357 359 358 357 358 357 354 351 347 345 345
307 306 308 308 308 307 307 313 305 309 320 313 313 314 317 319 314 319 327 322 317 316 315 316 320 322 324 325 326 326 326 327 325 335 355 356 356 358 356 359 357 351 349 346 344
307 308 309 309 307 306 308 308 311 310 310 313 317 317 317 319 315 312 327 322 320 318 319 322 326 323 325 326 326 326 327 327 326 325 336 344 359 355 357 358 356 355 350 348 344
309 310 309 308 308 308 305 311 311 310 309 309 313 315 314 316 315 312 321 320 320 322 322 325 327 325 326 327 327 326 326 326 329 325 353 356 360 358 353 355 350 352 351 348 346
311 310 310 306 307 310 309 311 312 310 306 308 311 313 311 311 312 315 317 320 325 325 323 325 325 327 327 328 326 329 325 328 329 321 325 350 358 356 355 357 352 350 352 351 345
311 311 311 307 312 310 312 312 310 307 311 312 312 313 309 310 313 314 315 317 322 327 326 328 326 327 327 327 325 327 324 326 325 320 338 338 336 340 355 355 354 352 350 351 349
312 313 311 308 308 312 312 314 309 311 316 312 311 310 310 311 312 313 314 312 315 315 317 323 317 322 324 323 325 323 318 314 314 315 319 326 324 322 351 351 349 350 350 349 350
314 313 313 312 309 311 314 309 310 312 312 314 310 310 310 311 312 313 311 311 312 314 315 314 314 313 313 318 318 317 316 318 320 319 321 316 320 320 320 327 335 345 349 349 348
315 313 314 315 315 314 312 309 315 314 314 312 310 311 311 310 310 311 310 311 311 309 309 313 315 313 312 314 317 317 317 317 322 321 321 317 321 326 325 328 338 340 347 349 349
317 316 314 313 313 314 309 312 315 313 313 313 313 313 313 313 310 311 310 311 311 310 312 312 314 311 312 311 312 316 316 314 314 314 318 318 319 319 324 329 333 341 346 348 350
318 316 314 314 314 311 312 313 314 313 312 312 314 312 314 312 312 311 311 311 311 309 309 310 313 311 311 311 310 310 310 317 315 321 323 319 324 325 322 324 337 344 345 343 349
315 310 314 314 313 308 312 314 314 313 313 312 312 313 312 313 311 311 312 312 312 311 306 308 308 311 309 309 308 309 308 307 310 313 318 320 326 320 319 330 341 340 341 345 342
311 312 315 312 309 305 310 313 311 313 312 312 312 312 311 310 312 312 314 314 313 310 310 307 304 308 310 308 308 307 308 304 313 313 311 317 319 326 336 337 335 338 339 341 343
311 309 314 312 311 308 311 312 312 312 311 311 312 310 309 309 312 312 313 312 311 315 311 309 305 307 311 308 307 308 308 305 302 304 310 319 319 324 329 332 330 335 338 337 337
306 310 306 304 303 309 311 311 312 311 310 311 310 309 309 309 308 311 311 311 310 316 316 309 305 307 307 309 307 312 312 310 305 309 309 310 311 321 327 330 328 328 332 332 333
304 308 306 308 308 308 309 311 313 312 309 308 311 310 310 310 310 311 309 309 309 310 309 304 310 310 311 312 312 312 313 313 312 311 311 309 317 322 324 328 326 325 326 329 331
311 308 303 304 305 308 307 310 311 311 309 310 311 310 308 309 310 311 310 309 309 307 307 306 313 311 313 312 311 312 312 312 312 312 310 312 319 318 320 321 321 320 322 325 328
312 308 305 306 305 307 309 311 311 310 310 309 310 309 310 310 308 308 306 305 307 308 306 308 309 309 311 310 310 313 311 312 319 320 320 318 319 317 316 321 317 315 315 317 319
Wind_Speed
20 20 21 21 21 21 21 19 19 17 12 12 13 13 10 7 6 4 6 9 12 19 16 19 10 9 8 3 3 2 1 2 3 0 5 11 6 2 8 8 4 2 7 19 27
21 21 21 21 20 20 20 20 19 15 13 13 12 11 8 6 6 11 12 17 17 21 22 19 6 8 2 3 3 2 1 3 1 3 5 7 8 7 5 6 11 15 21 27 27
22 22 22 22 21 20 19 19 19 15 13 14 10 8 6 6 2 7 4 21 20 26 23 18 18 4 2 2 3 2 3 1 1 5 12 10 11 5 10 5 9 18 19 21 24
22 22 23 23 22 22 21 19 17 16 12 12 8 5 4 3 1 3 10 25 26 22 21 13 6 6 4 4 4 3 8 6 2 7 8 6 9 5 3 5 14 15 19 19 17
22 22 23 23 24 23 22 20 17 14 12 9 6 4 1 1 7 1 22 25 29 20 17 7 8 5 5 4 4 7 5 6 5 8 8 9 5 10 8 10 13 17 19 16 15
22 23 23 24 24 24 23 21 18 13 8 8 4 2 1 2 4 9 27 27 25 20 11 8 8 5 3 2 2 1 5 9 4 9 8 8 6 10 10 16 12 17 17 16 16
25 25 25 25 24 24 24 21 19 12 8 5 3 4 1 8 1 17 23 20 22 21 6 7 4 4 1 2 4 5 3 4 6 5 5 14 5 5 13 15 18 15 16 18 18
26 26 26 25 25 24 23 22 18 13 7 6 6 2 6 2 7 21 20 12 17 16 3 14 4 2 1 4 6 4 4 4 2 1 6 1 1 6 13 13 16 20 18 17 17
26 26 25 25 25 24 23 15 8 2 11 11 7 2 6 2 9 21 20 11 15 10 6 6 4 1 2 2 4 6 2 3 2 4 5 3 1 6 9 10 12 17 19 16 17
26 26 25 26 26 24 20 3 14 12 10 5 1 2 6 5 7 22 18 22 6 6 2 4 3 3 3 3 4 3 4 2 2 5 1 4 1 7 9 11 10 18 20 17 17
27 25 27 27 24 22 8 5 3 3 4 8 5 4 5 9 10 9 22 9 6 5 5 4 4 6 7 6 4 3 4 0 3 3 2 7 4 9 8 6 10 15 14 16 16
27 28 29 26 22 7 5 3 6 1 6 9 7 6 10 5 2 5 25 6 6 6 5 4 6 8 6 5 5 2 3 3 5 3 5 2 2 4 6 5 7 10 13 13 14
29 30 26 22 4 4 2 0 6 3 2 5 5 4 5 8 5 8 11 5 7 6 5 7 5 7 5 3 4 2 3 3 5 2 3 6 1 2 3 1 1 2 6 9 16
32 26 22 14 2 7 3 12 14 11 4 5 4 5 5 3 2 4 11 7 3 8 8 5 3 7 4 3 6 1 7 6 3 2 1 0 2 3 4 7 6 6 6 7 13
28 20 18 8 5 1 8 21 3 2 1 2 2 4 2 6 4 3 2 5 7 6 6 5 6 4 3 6 6 7 6 6 3 2 3 1 4 5 3 4 10 12 13 11 10
21 18 12 5 5 6 17 17 2 3 1 2 3 4 5 3 1 3 4 6 3 5 3 5 2 5 8 6 9 5 5 7 5 3 2 2 4 4 3 5 5 13 16 15 14
18 11 6 6 3 13 17 3 3 3 5 6 4 4 5 2 4 4 5 6 3 5 3 3 2 5 3 3 3 5 6 2 3 2 4 2 4 6 8 12 8 13 19 18 16
13 9 13 10 13 11 4 5 7 5 4 4 4 5 6 6 7 6 4 5 7 5 4 5 1 6 8 3 5 5 7 5 5 5 4 3 5 1 6 10 15 4 12 13 14
9 5 16 20 12 4 4 6 1 4 6 6 1 7 7 6 5 6 5 3 4 4 5 5 1 5 4 5 2 4 5 3 7 2 3 2 4 6 18 19 20 18 2 5 9
6 6 14 21 5 2 4 4 3 4 6 3 5 3 3 7 5 5 6 5 6 7 2 2 5 3 5 5 7 7 1 3 4 3 2 2 3 4 16 19 19 19 16 11 7
5 4 18 11 6 6 4 3 4 9 5 7 4 5 4 3 5 4 6 2 7 6 8 2 3 4 5 8 5 6 5 5 5 3 5 4 2 7 7 11 17 18 17 16 9
3 3 19 8 5 2 3 4 6 9 9 7 4 5 5 6 6 4 4 4 14 3 4 4 5 5 2 5 4 5 3 3 4 3 2 3 2 6 10 13 16 17 18 20 17
3 1 12 7 4 3 4 4 6 10 8 8 8 7 5 4 6 4 4 6 14 6 2 1 3 4 3 5 5 7 5 3 4 3 1 4 4 8 11 14 16 17 17 18 20
3 4 5 5 2 4 2 5 4 7 6 5 6 4 5 8 9 3 3 5 8 8 13 6 4 3 6 4 3 4 4 4 4 3 3 1 3 6 12 15 16 17 15 15 16
4 1 2 3 5 5 4 4 4 7 5 9 6 9 4 5 4 4 5 6 6 13 6 5 4 3 5 5 3 3 3 1 1 3 3 5 2 3 6 9 9 11 15 17 17
3 3 4 2 3 5 6 5 5 4 6 5 5 4 8 5 2 2 2 4 1 6 5 4 3 3 2 3 2 4 6 6 4 3 3 6 3 3 3 5 9 11 13 15 15
3 3 4 4 3 4 2 2 2 1 6 5 2 3 7 3 3 1 1 3 2 3 3 3 4 3 3 2 2 3 1 3 2 2 2 1 0 4 4 6 6 7 9 11 13
Wind_Direction
353 350 349 349 348 349 345 343 344 338 334 333 332 325 317 304 298 256 236 208 192 170 159 154 161 144 165 190 236 243 291 294 327 136 130 140 113 340 283 146 103 174 134 135 139
350 349 347 346 345 346 345 344 341 338 331 333 332 324 326 317 294 245 243 195 174 173 160 150 150 153 148 188 224 209 194 238 218 141 150 125 129 140 143 145 90 94 108 133 140
349 347 345 343 342 340 342 341 340 333 327 327 330 326 323 328 304 245 227 177 167 170 167 155 146 130 125 168 234 205 225 242 274 92 131 144 166 163 137 82 148 141 136 144 147
348 344 342 340 341 339 338 339 337 331 321 324 319 324 326 347 214 351 170 163 160 160 151 137 139 139 155 191 202 272 233 252 178 132 126 179 141 133 120 111 153 140 142 146 157
344 342 340 338 339 337 336 335 331 325 317 318 304 308 332 1 253 329 156 159 157 152 156 142 149 140 169 199 187 224 262 259 236 160 155 137 144 136 129 131 132 139 150 158 164
341 338 337 336 337 335 333 330 325 316 308 299 272 267 191 255 311 164 160 160 168 169 167 150 174 167 158 256 243 302 249 269 289 158 155 130 149 148 164 152 164 155 166 168 173
337 335 334 335 334 332 330 326 317 301 284 259 214 149 260 224 348 167 168 169 177 177 141 179 175 168 47 271 304 274 320 340 27 117 142 126 148 227 154 166 159 174 181 174 175
334 332 333 333 332 331 326 325 312 284 242 179 164 171 245 112 157 167 171 159 176 181 109 182 129 95 213 302 344 13 40 8 52 126 161 126 155 129 155 177 160 183 179 177 177
335 334 333 332 331 330 327 330 341 171 144 142 133 241 264 193 173 180 172 151 170 193 197 186 117 153 351 63 8 13 120 40 20 192 147 157 97 156 165 183 172 182 178 178 178
337 337 334 331 330 331 330 84 92 96 101 135 100 353 258 213 169 182 172 146 139 129 108 127 104 119 47 89 193 181 93 14 350 215 207 167 233 157 181 187 186 175 175 178 180
339 337 332 330 330 326 340 126 27 28 202 196 191 257 288 332 144 159 163 145 97 106 137 193 116 186 192 195 173 134 110 206 286 205 190 226 196 184 182 172 172 189 182 178 185
339 336 334 330 330 334 109 155 132 231 305 226 232 260 275 258 89 106 151 133 134 156 135 83 211 204 186 190 168 139 104 288 261 252 187 21 80 108 187 194 182 183 202 180 180
341 337 335 338 19 91 299 123 306 255 164 288 193 191 229 153 187 188 144 154 145 137 180 145 212 172 193 164 144 119 161 212 224 53 50 114 73 158 183 139 240 185 182 199 185
340 339 338 354 71 347 268 335 330 165 50 271 218 260 159 194 117 164 175 145 137 161 152 161 160 152 158 197 137 162 213 209 276 50 134 343 288 274 196 191 211 213 219 194 190
342 344 341 351 324 309 322 339 92 134 314 145 170 138 102 136 160 43 127 52 152 145 109 227 153 154 166 205 155 215 161 183 217 133 107 16 76 261 132 237 218 218 215 209 199
345 342 347 343 318 330 341 336 117 35 242 13 124 133 98 23 53 72 74 48 122 95 68 189 189 144 199 211 174 121 82 39 48 80 45 205 131 287 216 221 220 218 220 212 204
345 344 338 316 311 327 335 26 50 102 321 336 25 101 106 99 65 73 43 30 94 98 127 41 10 336 33 127 92 92 81 27 39 39 199 25 75 232 288 330 302 224 214 207 210
347 2 355 341 328 319 3 55 58 318 306 322 4 62 73 355 26 26 62 42 10 64 86 133 327 360 337 39 165 163 157 150 162 170 203 20 179 293 333 328 353 289 210 209 200
341 7 15 346 324 334 69 61 240 307 310 332 27 66 17 8 100 80 59 46 16 351 128 133 73 318 59 26 46 169 78 169 108 21 90 245 324 328 353 2 2 11 33 232 208
357 348 6 352 11 29 77 98 347 336 315 21 92 56 80 358 68 73 26 331 338 24 174 143 91 20 305 25 25 93 93 72 12 125 146 348 66 314 342 344 350 0 354 325 233
27 40 357 354 356 45 69 70 20 350 33 43 36 63 88 49 54 66 359 51 350 343 58 70 80 333 33 14 305 11 17 29 108 103 151 141 282 9 335 352 354 358 356 343 271
66 39 346 22 51 16 48 354 8 339 6 25 82 62 54 32 44 80 100 8 334 316 47 358 103 66 70 290 35 67 66 101 119 209 56 120 208 19 16 16 12 9 13 14 25
77 274 349 22 81 15 352 12 57 14 16 11 23 33 37 47 87 51 54 342 4 43 76 132 31 89 14 331 2 52 342 91 105 80 30 129 223 44 15 19 12 15 21 24 26
75 37 338 36 48 102 56 11 20 29 55 57 12 40 50 33 16 84 38 350 354 19 43 82 69 126 164 139 148 72 1 24 94 88 153 191 269 6 20 14 5 8 19 30 31
32 108 178 355 2 37 59 16 14 10 12 28 38 33 34 60 35 44 13 352 358 358 28 77 99 70 66 86 91 143 160 345 353 165 146 202 302 60 23 26 8 2 14 23 22
100 111 31 51 347 34 14 1 34 351 29 9 84 33 46 85 73 125 41 30 338 338 42 7 116 107 76 64 117 201 225 205 248 299 214 159 237 54 330 50 23 11 8 12 11
56 88 98 318 17 68 333 35 21 47 26 56 45 85 46 55 173 231 130 92 55 37 45 57 120 90 159 359 93 36 234 168 127 59 79 219 126 358 7 34 29 8 13 2 355